Charlottesville, VA

7:27 PM EDT on October 21, 2019 (GMT -0400)
Charlottesville-Albemarle

Weather History for KCHO - August, 2019

Change the Weather History Date:

Wednesday, August 7, 2019

  Actual Average Record
Temperature  
Mean Temperature 80 °F 75 °F  
Max Temperature 90 °F 85 °F 105 °F (1918)
Min Temperature 69 °F 64 °F 46 °F (1994)
Degree Days  
Heating Degree Days 0 0  
Month to date heating degree days 0 0  
Since 1 June heating degree days 0 12  
Since 1 July heating degree days 0 1  
Cooling Degree Days 15 10  
Month to date cooling degree days 98 70  
Year to date cooling degree days 1166 700  
Since 1 June cooling degree days 880 614  
Growing Degree Days 30 (Base 50)    
Moisture  
Dew Point 67 °F    
Average Humidity 66    
Maximum Humidity 90    
Minimum Humidity 41    
Precipitation  
Precipitation 0.30 in 0.13 in 1.05 in (2017)
Month to date precipitation 0.52 0.99  
Year to date precipitation 25.82 25.51  
Sea Level Pressure  
Sea Level Pressure 29.81 in    
Wind  
Wind Speed 4 mph (WSW)    
Max Wind Speed 17 mph    
Max Gust Speed 22 mph    
Visibility 8 miles    
Events Rain , Thunderstorm    
T = Trace of Precipitation, MM = Missing Value Source: NWS Daily Summary

Daily Weather History Graph

Daily Weather History Graph

Search for Another Location

Airport or City:

Astronomy

Aug. 07, 2019 Rise Set
Actual Time 6:21 AM EDT 8:17 PM EDT
Civil Twilight 5:52 AM EDT 8:45 PM EDT
Nautical Twilight 5:17 AM EDT 9:20 PM EDT
Astronomical Twilight 4:39 AM EDT 9:58 PM EDT
Moon 1:44 PM EDT (8/7) 12:08 AM EDT (8/7)
Length of Visible Light 14h 53m
Length of Day
13h 55m
Waxing Crescent, 49% of the Moon is Illuminated
Aug 7
Waxing Crescent
Aug 7
First Quarter
Aug 15
Full
Aug 23
Last Quarter
Aug 30
New

Hourly Weather History & Observations

Time (EDT) Temp. Heat Index Dew Point Humidity Pressure Visibility Wind Dir Wind Speed Gust Speed Precip Events Conditions
12:53 AM 72.0 °F - 68.0 °F 87% 29.82 in 6.0 mi Calm Calm - N/A   Clear
1:53 AM 72.0 °F - 68.0 °F 87% 29.82 in 6.0 mi Calm Calm - N/A   Clear
2:53 AM 73.0 °F - 68.0 °F 84% 29.81 in 9.0 mi SW 3.5 mph - N/A   Clear
3:53 AM 73.0 °F - 66.9 °F 81% 29.81 in 9.0 mi SSW 5.8 mph - N/A   Clear
4:53 AM 71.1 °F - 66.0 °F 84% 29.81 in 8.0 mi SSW 5.8 mph - N/A   Clear
5:53 AM 71.1 °F - 66.0 °F 84% 29.82 in 7.0 mi WSW 4.6 mph - N/A   Clear
6:53 AM 70.0 °F - 66.0 °F 87% 29.83 in 7.0 mi WNW 3.5 mph - N/A   Clear
7:53 AM 73.0 °F - 66.9 °F 81% 29.83 in 8.0 mi Calm Calm - N/A   Clear
8:53 AM 77.0 °F - 68.0 °F 74% 29.84 in 10.0 mi Calm Calm - N/A   Clear
9:53 AM 82.9 °F 86.5 °F 69.1 °F 63% 29.83 in 10.0 mi South 6.9 mph - N/A   Clear
10:53 AM 84.9 °F 88.2 °F 68.0 °F 57% 29.81 in 10.0 mi Variable 3.5 mph - N/A   Partly Cloudy
11:53 AM 87.1 °F 92.0 °F 70.0 °F 57% 29.81 in 10.0 mi SW 9.2 mph - N/A   Scattered Clouds
12:53 PM 87.1 °F 90.6 °F 68.0 °F 53% 29.80 in 10.0 mi Variable 6.9 mph - N/A   Scattered Clouds
1:53 PM 87.1 °F 91.3 °F 69.1 °F 55% 29.78 in 10.0 mi SSW 10.4 mph - N/A   Clear
2:53 PM 88.0 °F 92.1 °F 69.1 °F 53% 29.76 in 10.0 mi Variable 4.6 mph - N/A   Clear
3:53 PM 90.0 °F 92.4 °F 66.0 °F 45% 29.75 in 10.0 mi Variable 5.8 mph - N/A   Scattered Clouds
4:53 PM 90.0 °F 90.6 °F 63.0 °F 40% 29.74 in 10.0 mi Variable 4.6 mph - N/A   Clear
5:53 PM 88.0 °F 89.6 °F 64.9 °F 46% 29.73 in 10.0 mi Calm Calm - N/A   Clear
6:53 PM 86.0 °F 87.6 °F 64.9 °F 49% 29.76 in 10.0 mi Calm Calm - N/A   Scattered Clouds
7:53 PM 82.0 °F 84.5 °F 66.9 °F 60% 29.78 in 10.0 mi ENE 6.9 mph - N/A   Mostly Cloudy
8:53 PM 79.0 °F - 66.0 °F 64% 29.78 in 10.0 mi NE 8.1 mph - N/A   Scattered Clouds
9:11 PM 78.1 °F - 66.0 °F 66% 29.81 in 10.0 mi East 8.1 mph - N/A Thunderstorm Mostly Cloudy
9:34 PM 77.0 °F - 66.0 °F 69% 29.85 in 10.0 mi WNW 5.8 mph - 0.00 in Rain , Thunderstorm Light Thunderstorms and Rain
9:53 PM 75.0 °F - 68.0 °F 79% 29.82 in 9.0 mi Calm Calm - 0.02 in Rain , Thunderstorm Light Thunderstorms and Rain
10:09 PM 75.0 °F - 68.0 °F 79% 29.85 in 10.0 mi SE 4.6 mph - 0.00 in Rain , Thunderstorm Light Rain
10:36 PM 73.9 °F - 69.1 °F 85% 29.87 in 3.0 mi Variable 3.5 mph - 0.05 in Rain Light Rain
10:38 PM 73.0 °F - 69.1 °F 87% 29.86 in 1.8 mi Variable 5.8 mph - 0.12 in Rain Heavy Rain
10:51 PM 73.4 °F - 66.2 °F 78% 29.84 in 4.0 mi West 5.8 mph - 0.28 in Rain Light Rain
10:53 PM 73.0 °F - 66.9 °F 81% 29.83 in 8.0 mi West 5.8 mph - 0.28 in Rain Light Rain
11:53 PM 72.0 °F - 68.0 °F 87% 29.83 in 10.0 mi NNW 4.6 mph - 0.00 in   Clear